User: anonymous   Login
Location: SAPM � Hemmingford
(45.0500°N, 73.5833°W)
Time: 18:02:51
(UTC-04:00)
Language:

Cosmos 1674 Rocket - Orbit

View from above orbital plane
View from above orbital plane
View from above satellite
View from above satellite

Ground track
Ground track

The orbit data is extracted from the following two-line orbital elements,

1 15945U 85069B   16207.17668532  .00000103  00000-0  95694-5 0  9998
2 15945  82.5273  79.2605 0018257 282.4921  77.4251 14.83869562672534
Epoch (UTC): 25 July 2016 04:14:25
Eccentricity: 0.0018257
inclination: 82.5273°
perigee height: 604 km
apogee height: 630 km
right ascension of ascending node: 79.2605°
argument of perigee: 282.4921°
revolutions per day: 14.83869562
mean anomaly at epoch: 77.4251°
orbit number at epoch: 67253

The dashed part of the orbit path shows where the satellite is in the earth's shadow,  

DLR